Regional Weather Roundup
Issued by NWS Little Rock, AR

Home | Current Version | Previous Version | Text Only | Print | Product List | Glossary On
Versions: 1 2 3 4 5 6 7 8 9 10 11 12 13 14 15 16 17 18 19 20 21 22 23 24 25 26 27 28 29 30 31 32 33 34 35 36 37 38 39 40 41 42 43 44 45 46 47 48 49 50
000
ASUS44 KLZK 311605
RWRLZK

WEATHER ROUNDUP FOR ARKANSAS
NATIONAL WEATHER SERVICE LITTLE ROCK AR
1100 AM CDT TUE MAR 31 2015

NOTE: "FAIR" INDICATES FEW OR NO CLOUDS BELOW 12,000 FEET WITH NO
SIGNIFICANT WEATHER AND/OR OBSTRUCTIONS TO VISIBILITY.

ARZ001-003-010-029-311700-
NORTHWEST ARKANSAS

CITY           SKY/WX    TMP DP  RH WIND       PRES   REMARKS
FAYETTEVILLE   MOSUNNY   72  65  78 SW8       29.99S
FORT SMITH     SUNNY     73  59  61 VRB3      29.98S
HARRISON       MOSUNNY   74  60  61 VRB7      29.99S
BENTONVILLE    CLOUDY    70  61  73 W9        30.00S
ROGERS         CLOUDY    71  63  75 SW9       30.00S
SILOAM SPGS    PTSUNNY   72  61  68 W7        30.01R
HIGHFILL       PTSUNNY   71  62  73 W9        29.99R
SPRINGDALE     MOSUNNY   72  63  73 SW7G14    30.01S
$$

ARZ004-005-016-311700-
NORTH CENTRAL ARKANSAS

CITY           SKY/WX    TMP DP  RH WIND       PRES   REMARKS
BATESVILLE     SUNNY     73  61  64 W5        29.99F
FLIPPIN        SUNNY     66  54  63 SE3       29.99S
MTN HOME       SUNNY     69  59  70 VRB7      29.99S
$$

ARZ040-041-311700-
WEST CENTRAL ARKANSAS

CITY           SKY/WX    TMP DP  RH WIND       PRES   REMARKS
MENA           CLOUDY    70  64  83 W12       30.03R
MOUNT IDA      CLOUDY    73  62  68 CALM      29.99R
$$

ARZ009-017-025-026-028-311700-
NORTHEAST ARKANSAS

CITY           SKY/WX    TMP DP  RH WIND       PRES   REMARKS
CORNING          N/A     68  55  64 SW9       29.99S
JONESBORO      SUNNY     68  59  73 SW9       30.00R
NEWPORT        SUNNY     72  60  65 S9        30.01S
BLYTHEVILLE    MOSUNNY   70  59  68 SW8       30.00S
$$

ARZ022-023-033-042-044-311700-
CENTRAL ARKANSAS

CITY           SKY/WX    TMP DP  RH WIND       PRES   REMARKS
LITTLE ROCK    CLOUDY    69  59  70 SW6       30.01R
N LITTLE ROCK  PTSUNNY   68  63  84 SW7       30.01R
JACKSONVILLE   PTSUNNY   72  62  70 S5        30.00R
SEARCY         MOSUNNY   73  62  68 CALM      30.01F
HOT SPRINGS    CLOUDY    70  62  76 SW6       30.01F
RUSSELLVILLE   MOSUNNY   71  61  70 CALM      29.99S
CLINTON        FAIR      70  59  68 CALM      30.00F
$$

ARZ036-311700-
EAST ARKANSAS

CITY           SKY/WX    TMP DP  RH WIND       PRES   REMARKS
WEST MEMPHIS   LGT RAIN  68  62  81 CALM      30.01S
$$

ARZ050-053-066-070-073-311700-
SOUTHWEST ARKANSAS

CITY           SKY/WX    TMP DP  RH WIND       PRES   REMARKS
ARKADELPHIA    FAIR      74  66  75 SW8       30.02S
CAMDEN         MOSUNNY   75  59  57 MISG      30.03S
TEXARKANA      PTSUNNY   72  62  71 SW10      30.03R
EL DORADO      MOSUNNY   74  61  63 S9        30.05S
DE QUEEN       CLOUDY    69  63  81 W6        30.01R
$$

ARZ056-057-069-311700-
SOUTHEAST ARKANSAS

CITY           SKY/WX    TMP DP  RH WIND       PRES   REMARKS
PINE BLUFF     PTSUNNY   74  63  68 W14G21    30.02F
STUTTGART      PTSUNNY   72  63  73 W9        30.02S
MONTICELLO     PTSUNNY   74  61  63 SW10      30.04S

$$




USA.gov is the U.S. government's official web portal to all federal, state and local government web resources and services.